Hourly Data Report for October 16, 2014

All times are specified in Local Standard Time (LST). Add 1 hour to adjust for Daylight Saving Time where and when it is observed.

PANGNIRTUNG
NUNAVUT

66°08'36.300" N
65°42'40.500" W
22.60 m
2403049
71826
WXP

Download Data

Hourly Data (October 2014)
Hourly Data Report for October 16, 2014
Temp Definition
°C
Dew Point Temp Definition
°C
Rel Hum Definition
%
Wind Dir Definition
10's deg

Wind Spd Definition
km/h
Visibility Definition
km
Stn Press Definition
kPa
Hmdx Definition


Wind Chill Definition


Weather Definition


TIME
00:00 -3.8 -5.1 90 24 27   100.43   -11 LegendNANA
01:00 -3.5 -6.4 80 26 18   100.47   -9 LegendNANA
02:00 -4.0 -7.3 77 28 9   100.51   -8 LegendNANA
03:00 -4.5 -7.7 78 18 8   100.52   -8 LegendNANA
04:00 -4.3 -7.6 78 19 5   100.49   -6 LegendNANA
05:00 -4.2 -6.8 82 8 5   100.46   -6 LegendNANA
06:00 -4.5 -5.9 90 9 8   100.45   -8 LegendNANA
07:00 -4.6 -5.9 91 6 10   100.45   -9 LegendNANA
08:00 -4.5 -7.3 80 14 7   100.48   -8 LegendNANA
09:00 -4.4 -8.2 75 21 4   100.54   -6 LegendNANA
10:00 -4.2 -7.9 75 18 2   100.59   -5 LegendNANA
11:00 -5.0 -9.6 70 23 4   100.60   -7 LegendNANA
12:00 -5.2 -9.0 74 17 3   100.62   -7 LegendNANA
13:00 -5.1 -8.7 75 24 9   100.69   -9 LegendNANA
14:00 -3.9 -7.5 76 12 6   100.71   -7 LegendNANA
15:00 -3.8 -7.8 74 23 9   100.71   -8 LegendNANA
16:00 -3.5 -6.7 78 23 17   100.71   -9 LegendNANA
17:00 -4.1 -6.7 82 23 17   100.71   -10 LegendNANA
18:00 -4.8 -7.8 80 23 16   100.69   -11 LegendNANA
19:00 -4.9 -8.3 77 20 3   100.71   -6 LegendNANA
20:00 -4.6 -8.3 75 19 7   100.70   -8 LegendNANA
21:00 -5.1 -9.0 74 16 3   100.67   -6 LegendNANA
22:00 -5.6 -9.3 75 21 3   100.66   -7 LegendNANA
23:00 -5.9 -9.6 75 19 8   100.63   -10 LegendNANA

Notes on Data Quality.

Legend

  • E = Estimated
  • M = Missing
  • NA = Not Available
  • ‡ = Partner data that is not subject to review by the National Climate Archives
Date modified: